This demonstration page uses our WeatherBlox Daily Observations layout. Learn more.

Left ArrowRight Arrow

39.01783, -85.05884

Hourly Observations for January 13, 2020

Temp ( °F °C ) Dew Point ( °F °C ) Humidity (%) Winds ( mph kmh ) Pressure ( in mb ) Visibility ( mi km ) Precip ( " mm )
12:52 am 00:52 Cloudy 40 4.4 36 2.2 86 86 S 7 11 30.24 1024 10 16 0.00 0.00
1:52 am 01:52 Mostly Cloudy 41 5 37 2.8 86 86 SSW 6 9 30.23 1024 10 16 0.00 0.00
2:52 am 02:52 Cloudy 40 4.4 36 2.2 86 86 SSW 6 9 30.24 1024 10 16 0.00 0.00
3:52 am 03:52 Cloudy 40 4.4 37 2.8 89 89 S 6 9 30.24 1024 10 16 0.00 0.00
4:52 am 04:52 Cloudy 39 3.9 36 2.2 89 89 SSW 3 6 30.24 1024 10 16 0.00 0.00
5:52 am 05:52 Cloudy 41 5 37 2.8 86 86 WSW 6 9 30.26 1025 10 16 0.00 0.00
6:52 am 06:52 Cloudy 42 5.6 36 2.2 79 79 WSW 8 13 30.28 1026 10 16 0.00 0.00
7:52 am 07:52 Cloudy 41 5 36 2.2 82 82 WSW 6 9 30.31 1027 10 16 0.00 0.00
8:52 am 08:52 Cloudy 42 5.6 36 2.2 79 79 W 6 9 30.34 1027 10 16 0.00 0.00
9:52 am 09:52 Cloudy 42 5.6 34 1.1 73 73 WSW 7 11 30.36 1028 10 16 0.00 0.00
10:52 am 10:52 Mostly Cloudy 44 6.7 35 1.7 71 71 WNW 7 11 30.38 1029 10 16 0.00 0.00
11:52 am 11:52 Mostly Cloudy 44 6.7 34 1.1 68 68 W 6 9 30.38 1029 10 16 0.00 0.00
12:52 pm 12:52 Mostly Cloudy 46 7.8 35 1.7 66 66 Calm 30.37 1028 10 16 0.00 0.00
1:52 pm 13:52 Mostly Cloudy 47 8.3 35 1.7 63 63 SE 6 9 30.34 1027 10 16 0.00 0.00
2:52 pm 14:52 Mostly Cloudy 48 8.9 35 1.7 61 61 Calm 30.32 1027 10 16 0.00 0.00
3:52 pm 15:52 Mostly Cloudy 48 8.9 36 2.2 63 63 Calm 30.32 1027 10 16 0.00 0.00
4:52 pm 16:52 Mostly Cloudy 46 7.8 36 2.2 68 68 SSW 3 6 30.33 1027 10 16 0.00 0.00
5:52 pm 17:52 Mostly Cloudy 46 7.8 35 1.7 66 66 Calm 30.33 1027 10 16 0.00 0.00
6:52 pm 18:52 Mostly Cloudy 42 5.6 34 1.1 73 73 SE 3 6 30.33 1027 10 16 0.00 0.00
7:52 pm 19:52 Mostly Cloudy 42 5.6 34 1.1 73 73 ESE 5 7 30.32 1027 10 16 0.00 0.00
8:52 pm 20:52 Mostly Cloudy 41 5 34 1.1 76 76 E 5 7 30.29 1026 10 16 0.00 0.00
9:52 pm 21:52 Cloudy 41 5 35 1.7 79 79 ENE 6 9 30.27 1025 10 16 0.00 0.00
10:52 pm 22:52 Cloudy 41 5 35 1.7 79 79 ESE 6 9 30.26 1025 10 16 0.00 0.00
11:52 pm 23:52 Cloudy 42 5.6 36 2.2 79 79 SE 9 15 30.23 1024 10 16 0.00 0.00

Powered by AerisWeather